• In Belgien
  • Länderverzeichnis
  • Für 7 Tage
  • Wassertemperatur
  • Satellitenkarten
  • Wetterkarte
  • Widgets
  • user-avatar
    Anmelden

    Stündliche Wetter Brügge

    Heute, 19 Februar, Montag

    Zeit Temperatur Niederschläge Wind Luftdruck Luftfeuchtigkeit
    00:00 0°C° 0 mm 4 m/S 765 mmHg 77%
    01:00 0°C° 0 mm 4 m/S 765 mmHg 76%
    02:00 0°C° 0 mm 4 m/S 765 mmHg 76%
    03:00 0°C° 0 mm 4 m/S 764 mmHg 75%
    04:00 0°C° 0,1 mm 4 m/S 764 mmHg 75%
    05:00 0°C° 0,1 mm 4 m/S 764 mmHg 75%
    06:00 0°C° 0,1 mm 4 m/S 763 mmHg 74%
    07:00 +1°C° 0,3 mm 4 m/S 763 mmHg 75%
    08:00 +1°C° 0,3 mm 5 m/S 763 mmHg 75%
    09:00 +2°C° 0,3 mm 5 m/S 763 mmHg 75%
    10:00 +2°C° 0,1 mm 5 m/S 763 mmHg 75%
    11:00 +3°C° 0,1 mm 5 m/S 762 mmHg 75%
    12:00 +3°C° 0,1 mm 5 m/S 762 mmHg 76%
    13:00 +4°C° 0,3 mm 4 m/S 762 mmHg 78%
    14:00 +5°C° 0,3 mm 4 m/S 761 mmHg 80%
    15:00 +5°C° 0,3 mm 4 m/S 761 mmHg 82%
    16:00 +5°C° 0,4 mm 4 m/S 761 mmHg 84%
    17:00 +4°C° 0,4 mm 4 m/S 761 mmHg 87%
    18:00 +4°C° 0,4 mm 4 m/S 761 mmHg 89%
    19:00 +4°C° 0,2 mm 3 m/S 761 mmHg 90%
    20:00 +4°C° 0,2 mm 3 m/S 760 mmHg 91%
    21:00 +4°C° 0,2 mm 3 m/S 760 mmHg 92%
    22:00 +4°C° 0,1 mm 3 m/S 760 mmHg 92%
    23:00 +4°C° 0,1 mm 3 m/S 760 mmHg 92%

    Morgen, 20 Februar, Dienstag

    Zeit Temperatur Niederschläge Wind Luftdruck Luftfeuchtigkeit
    00:00 +4°C° 0,1 mm 3 m/S 761 mmHg 93%
    01:00 +4°C° 0,1 mm 3 m/S 760 mmHg 92%
    02:00 +3°C° 0,1 mm 3 m/S 760 mmHg 92%
    03:00 +3°C° 0,1 mm 3 m/S 760 mmHg 92%
    04:00 +3°C° 0,1 mm 3 m/S 760 mmHg 91%
    05:00 +3°C° 0,1 mm 3 m/S 760 mmHg 91%
    06:00 +3°C° 0,1 mm 3 m/S 760 mmHg 90%
    07:00 +3°C° 0,2 mm 3 m/S 761 mmHg 88%
    08:00 +3°C° 0,2 mm 4 m/S 761 mmHg 86%
    09:00 +3°C° 0,2 mm 4 m/S 761 mmHg 84%
    10:00 +4°C° 0,1 mm 4 m/S 762 mmHg 79%
    11:00 +4°C° 0,1 mm 4 m/S 762 mmHg 75%
    12:00 +5°C° 0,1 mm 4 m/S 762 mmHg 70%
    13:00 +5°C° 0 mm 4 m/S 762 mmHg 67%
    14:00 +5°C° 0 mm 5 m/S 763 mmHg 63%
    15:00 +6°C° 0 mm 5 m/S 763 mmHg 60%
    16:00 +5°C° 0 mm 5 m/S 764 mmHg 63%
    17:00 +3°C° 0 mm 6 m/S 764 mmHg 67%
    18:00 +2°C° 0 mm 6 m/S 765 mmHg 70%
    19:00 +2°C° 0 mm 6 m/S 766 mmHg 71%
    20:00 +1°C° 0 mm 6 m/S 767 mmHg 71%
    21:00 +1°C° 0 mm 6 m/S 767 mmHg 72%
    22:00 0°C° 0 mm 5 m/S 768 mmHg 73%
    23:00 0°C° 0 mm 5 m/S 768 mmHg 74%

    übermorgen, 21 Februar, Mittwoch

    Zeit Temperatur Niederschläge Wind Luftdruck Luftfeuchtigkeit
    00:00 -1°C° 0 mm 4 m/S 768 mmHg 75%
    01:00 -1°C° 0 mm 4 m/S 768 mmHg 77%
    02:00 -1°C° 0 mm 4 m/S 768 mmHg 78%
    03:00 -2°C° 0 mm 4 m/S 769 mmHg 79%
    04:00 -2°C° 0 mm 4 m/S 769 mmHg 80%
    05:00 -2°C° 0 mm 4 m/S 769 mmHg 80%
    06:00 -2°C° 0 mm 4 m/S 769 mmHg 81%
    07:00 -1°C° 0 mm 4 m/S 769 mmHg 77%
    08:00 0°C° 0 mm 4 m/S 769 mmHg 72%
    09:00 +1°C° 0 mm 4 m/S 769 mmHg 68%
    10:00 +3°C° 0 mm 4 m/S 769 mmHg 64%
    11:00 +4°C° 0 mm 4 m/S 769 mmHg 59%
    12:00 +5°C° 0 mm 4 m/S 769 mmHg 55%
    13:00 +5°C° 0 mm 5 m/S 768 mmHg 55%
    14:00 +5°C° 0 mm 5 m/S 768 mmHg 56%
    15:00 +5°C° 0 mm 5 m/S 768 mmHg 56%
    16:00 +3°C° 0 mm 5 m/S 767 mmHg 62%
    17:00 +2°C° 0 mm 5 m/S 767 mmHg 68%
    18:00 +1°C° 0 mm 5 m/S 767 mmHg 75%
    19:00 +1°C° 0 mm 5 m/S 767 mmHg 76%
    20:00 0°C° 0 mm 5 m/S 768 mmHg 77%
    21:00 0°C° 0 mm 5 m/S 768 mmHg 79%
    22:00 0°C° 0 mm 5 m/S 768 mmHg 79%
    23:00 -1°C° 0 mm 5 m/S 767 mmHg 79%

    22 Februar, Donnerstag

    Zeit Temperatur Niederschläge Wind Luftdruck Luftfeuchtigkeit
    00:00 -1°C° 0 mm 5 m/S 767 mmHg 79%
    01:00 -2°C° 0 mm 5 m/S 767 mmHg 79%
    02:00 -2°C° 0 mm 5 m/S 767 mmHg 79%
    03:00 -2°C° 0 mm 5 m/S 767 mmHg 79%
    04:00 -2°C° 0 mm 5 m/S 767 mmHg 78%
    05:00 -2°C° 0 mm 5 m/S 767 mmHg 77%
    06:00 -4°C° 0 mm 5 m/S 767 mmHg 77%
    07:00 -3°C° 0 mm 6 m/S 767 mmHg 72%
    08:00 -2°C° 0 mm 6 m/S 767 mmHg 66%
    09:00 -1°C° 0 mm 7 m/S 767 mmHg 61%
    10:00 0°C° 0 mm 7 m/S 767 mmHg 57%
    11:00 +2°C° 0 mm 7 m/S 766 mmHg 53%
    12:00 +3°C° 0 mm 7 m/S 766 mmHg 49%
    13:00 +3°C° 0 mm 7 m/S 766 mmHg 48%
    14:00 +3°C° 0 mm 7 m/S 765 mmHg 46%
    15:00 +2°C° 0 mm 8 m/S 765 mmHg 44%
    16:00 +1°C° 0 mm 8 m/S 765 mmHg 47%
    17:00 0°C° 0 mm 7 m/S 766 mmHg 49%
    18:00 -1°C° 0 mm 7 m/S 766 mmHg 51%
    19:00 -2°C° 0 mm 7 m/S 766 mmHg 53%
    20:00 -2°C° 0 mm 8 m/S 766 mmHg 55%
    21:00 -2°C° 0 mm 8 m/S 767 mmHg 57%
    22:00 -3°C° 0 mm 7 m/S 767 mmHg 59%
    23:00 -3°C° 0 mm 7 m/S 766 mmHg 60%

    23 Februar, Freitag

    Zeit Temperatur Niederschläge Wind Luftdruck Luftfeuchtigkeit
    00:00 -3°C° 0 mm 7 m/S 766 mmHg 61%
    01:00 -3°C° 0 mm 6 m/S 766 mmHg 62%
    02:00 -4°C° 0 mm 6 m/S 766 mmHg 64%
    03:00 -4°C° 0 mm 6 m/S 766 mmHg 65%
    04:00 -4°C° 0 mm 6 m/S 766 mmHg 67%
    05:00 -4°C° 0 mm 6 m/S 766 mmHg 69%
    06:00 -4°C° 0 mm 6 m/S 766 mmHg 71%
    07:00 -3°C° 0 mm 7 m/S 766 mmHg 67%
    08:00 -2°C° 0 mm 7 m/S 766 mmHg 64%
    09:00 -2°C° 0 mm 8 m/S 766 mmHg 60%
    10:00 -1°C° 0 mm 8 m/S 766 mmHg 57%
    11:00 0°C° 0 mm 8 m/S 766 mmHg 53%
    12:00 +1°C° 0 mm 8 m/S 766 mmHg 50%
    13:00 +1°C° 0 mm 8 m/S 766 mmHg 50%
    14:00 +1°C° 0 mm 8 m/S 766 mmHg 51%
    15:00 0°C° 0 mm 8 m/S 765 mmHg 51%
    16:00 -1°C° 0 mm 7 m/S 766 mmHg 54%
    17:00 -2°C° 0 mm 7 m/S 766 mmHg 57%
    18:00 -3°C° 0 mm 7 m/S 766 mmHg 60%
    19:00 -3°C° 0 mm 7 m/S 767 mmHg 59%
    20:00 -3°C° 0 mm 7 m/S 767 mmHg 58%
    21:00 -4°C° 0 mm 8 m/S 768 mmHg 57%
    22:00 -5°C° 0 mm 8 m/S 768 mmHg 58%
    23:00 -4°C° 0 mm 7 m/S 768 mmHg 58%

    24 Februar, Samstag

    Zeit Temperatur Niederschläge Wind Luftdruck Luftfeuchtigkeit
    00:00 -4°C° 0 mm 7 m/S 768 mmHg 58%
    01:00 -4°C° 0 mm 7 m/S 769 mmHg 58%
    02:00 -6°C° 0 mm 7 m/S 769 mmHg 58%
    03:00 -6°C° 0 mm 7 m/S 769 mmHg 58%
    04:00 -6°C° 0 mm 7 m/S 769 mmHg 57%
    05:00 -6°C° 0 mm 7 m/S 769 mmHg 56%
    06:00 -6°C° 0 mm 7 m/S 770 mmHg 55%
    07:00 -6°C° 0 mm 7 m/S 770 mmHg 52%
    08:00 -4°C° 0 mm 7 m/S 771 mmHg 49%
    09:00 -3°C° 0 mm 7 m/S 771 mmHg 46%
    10:00 -3°C° 0 mm 7 m/S 771 mmHg 44%
    11:00 -2°C° 0 mm 7 m/S 771 mmHg 42%
    12:00 -1°C° 0 mm 7 m/S 771 mmHg 40%
    13:00 -1°C° 0 mm 7 m/S 771 mmHg 39%
    14:00 -1°C° 0 mm 8 m/S 771 mmHg 39%
    15:00 -1°C° 0 mm 8 m/S 771 mmHg 38%
    16:00 -2°C° 0 mm 7 m/S 771 mmHg 39%
    17:00 -3°C° 0 mm 7 m/S 771 mmHg 40%
    18:00 -4°C° 0 mm 7 m/S 772 mmHg 41%
    19:00 -6°C° 0 mm 7 m/S 772 mmHg 41%
    20:00 -6°C° 0 mm 8 m/S 772 mmHg 40%
    21:00 -7°C° 0 mm 8 m/S 773 mmHg 40%
    22:00 -7°C° 0 mm 8 m/S 773 mmHg 41%
    23:00 -7°C° 0 mm 8 m/S 773 mmHg 42%
    Mehr zeigen